Location: Hiram
(41.3130°N, 81.1440°W)
Time: 17:38:06
(UTC-04:00)

Iridium 62 - Visible Passes

Search period start: 02 June 2015 00:00
Search period end: 12 June 2015 00:00
Orbit: 776 x 779 km, 86.4° (Epoch: 02 June)

Date Brightness Start Highest point End Pass type
(mag) Time Alt. Az. Time Alt. Az. Time Alt. Az.
02 Jun 9.3 22:16:02 10° WNW 22:16:28 10° WNW 22:16:31 10° WNW visible
03 Jun 8.6 21:38:42 10° WSW 21:42:27 19° WNW 21:46:00 10° NNW visible
06 Jun 8.9 21:40:16 10° W 21:42:49 13° WNW 21:45:06 10° NW visible
